[[{"header":{"parameterUnit":"m.s-1","parameterCategory":1,"la1":30.2991,"la2":30.254,"lo1":-89.0895,"lo2":-89.0444,"dy":0.0017,"dx":0.0017,"nx":28,"ny":28,"refTime":"2024-08-06T21:00:00:Z","depth":0,"parameterNumber":2,"parameterNumberName":"U-component_of_WINDS"},"data":[0,0,0,0,0,0,0,0,0,0,0,0,0,0,0,0,0,0,0,0,0,0,0,0,0,0,0,0,0,0,0,0,0,0,0,0,0,0,0,0,0,0,0,0,0,0,0,0,0,0,0,0,0,0,0,0,0,0,3.2083,3.2084,0,3.215,3.215,3.2151,3.2127,3.2125,3.2124,3.2122,3.2194,3.2197,3.2201,0,0,0,0,0,0,0,0,0,0,0,0,0,3.1941,3.1943,3.2083,3.2084,3.2085,3.215,3.215,3.2151,3.2127,3.2125,3.2123,3.2121,3.2193,3.2197,3.2201,0,0,0,0,0,0,0,0,0,0,0,0,0,3.2005,3.1944,3.2083,3.208,3.208,3.2149,3.215,3.2152,3.2127,3.2125,3.2123,3.2121,3.2192,3.2197,3.2201,3.2278,0,0,3.2217,3.2219,0,0,0,0,0,0,0,0,3.2001,3.201,3.208,3.208,3.2081,3.2127,3.2127,3.2194,3.2128,3.211,3.2122,3.2119,3.2174,3.218,3.2198,3.2281,3.2284,3.2217,3.222,3.2222,3.2224,0,0,0,0,0,0,0,3.1997,3.2007,3.2109,3.2081,3.2082,3.2078,3.2084,3.2139,3.2154,3.2111,3.2109,3.2117,3.2174,3.2193,3.2199,3.2286,3.2217,3.2222,3.2225,3.2227,3.2441,3.2444,0,0,0,0,0,0,3.1991,3.2003,3.2107,3.2111,3.2034,3.2082,3.2089,3.2115,3.2153,3.2157,3.2119,3.2116,3.2186,3.2194,3.2202,3.2297,3.2222,3.2227,3.223,3.2438,3.2442,3.2444,0,0,0,0,0,0,3.1988,3.2001,3.2105,3.2057,3.207,3.2087,3.2116,3.2117,3.2136,3.2159,3.2162,3.2136,3.2184,3.2195,3.226,3.23,3.2229,3.2234,3.2435,3.2439,3.2443,3.2487,0,0,0,0,0,0,3.1984,3.2,3.2027,3.2058,3.2072,3.216,3.2118,3.212,3.2145,3.2141,3.2176,3.2179,3.2183,3.2253,3.2265,3.2305,3.2238,3.2432,3.2437,3.2442,3.2482,3.2492,3.2501,0,0,0,0,0,3.1979,3.2036,3.2028,3.2041,3.2107,3.2162,3.2171,3.2173,3.2148,3.2177,3.2193,3.2178,3.2293,3.226,3.2273,3.2315,3.2429,3.2435,3.2441,3.2478,3.249,3.25,0,0,0,0,0,0,3.201,3.204,3.2032,3.21,3.2129,3.2158,3.2194,3.2185,3.2222,3.2217,3.222,3.2228,3.2296,3.2312,3.2274,3.2394,3.2358,3.2367,3.2381,3.2393,3.2402,3.2397,3.2242,0,0,0,0,0,3.2024,3.2065,3.209,3.2148,3.2163,3.2177,3.22,3.22,3.223,3.2242,3.2262,3.2294,3.2337,3.2366,3.2407,3.2485,3.2494,3.2521,3.253,3.2537,3.2546,3.2593,3.2606,3.2464,3.2464,3.2464,0,0,3.2055,3.2077,3.2102,3.2155,3.2177,3.2222,3.2187,3.2234,3.2268,3.225,3.2313,3.233,3.2365,3.2438,3.2472,3.2454,3.2587,3.2545,3.2551,3.2555,3.26,3.2614,3.2625,3.2469,3.2468,3.2467,0,0,3.2135,3.2154,3.2206,3.223,3.2264,3.2273,3.2286,3.2317,3.2328,3.2391,3.238,3.2422,3.2495,3.2522,3.2546,3.2641,3.263,3.2654,3.2702,3.2748,3.2759,3.2769,3.2807,3.2819,3.2662,3.2662,3.2662,0,3.2169,3.2234,3.2234,3.2284,3.231,3.2296,3.2351,3.2374,3.2421,3.244,3.2419,3.2515,3.2537,3.2618,3.2642,3.266,3.2678,3.265,3.2757,3.2767,3.2777,3.2812,3.2826,3.2665,3.2665,3.2664,3.2664,0,3.2276,3.2322,3.2361,3.2406,3.2436,3.2488,3.25,3.253,3.2529,3.2541,3.2609,3.2636,3.2684,3.2704,3.2702,3.2786,3.2775,3.2756,3.272,3.2793,3.2827,3.284,3.2669,3.2668,3.2667,3.2667,0,0,3.2374,3.2422,3.2437,3.2459,3.2498,3.2535,3.2589,3.2635,3.2663,3.2697,3.2744,3.2809,3.2793,3.282,3.2822,3.2862,3.294,3.2839,3.284,3.2859,3.304,3.3055,3.307,3.2934,3.2936,3.2938,3.3038,0,3.2458,3.2551,3.2556,3.2641,3.2686,3.2676,3.2723,3.2754,3.2768,3.281,3.2826,3.2874,3.2847,3.2864,3.2903,3.2922,3.2977,3.2915,3.2981,3.2983,3.2973,3.3087,3.3103,3.3195,3.3051,3.3053,3.3054,0,3.2568,3.2606,3.2696,3.2733,3.2752,3.2794,3.2841,3.288,3.2916,3.2924,3.2956,3.2954,3.3012,3.2974,3.3057,3.3015,3.3042,3.3057,3.306,3.3067,3.3024,3.31,3.3224,3.3239,3.3074,3.3073,3.3071,0,3.2635,3.2708,3.2773,3.2792,3.2836,3.2867,3.2886,3.292,3.295,3.2991,3.3011,3.3058,3.3085,3.3123,3.3135,3.3105,3.3219,3.318,3.323,3.323,3.3255,3.3253,3.3388,3.327,3.3269,3.3269,3.3269,0,3.2729,3.2785,3.2804,3.2844,3.2908,3.2915,3.2979,3.2997,3.3028,3.3074,3.3068,3.3111,3.3123,3.317,3.318,3.325,3.3261,3.3271,3.3274,3.3273,3.3272,3.3292,3.3286,3.3273,3.3272,3.3271,3.3271,0,3.2813,3.2827,3.2898,3.2935,3.2945,3.2992,3.3024,3.3064,3.3079,3.3137,3.3151,3.3175,3.323,3.3246,3.3311,3.3318,3.3401,3.3396,3.3389,3.3389,3.3439,3.3435,3.3592,3.3615,3.348,3.3481,3.3482,0,3.2873,3.2917,3.2959,3.2989,3.301,3.3058,3.3089,3.3099,3.3132,3.3179,3.3215,3.3269,3.3313,3.3402,3.3427,3.3478,3.3476,3.3528,3.3484,3.3483,3.3481,3.3479,3.3485,3.3536,3.3538,3.3539,3.354,0,3.2979,3.2985,3.3029,3.3077,3.3114,3.3153,3.3189,3.3215,3.3231,3.3269,3.3325,3.3359,3.3428,3.3483,3.3536,3.356,3.3554,3.3554,3.3569,3.3569,3.3564,3.357,3.3414,3.355,3.3549,3.3548,3.3548,3.3547,3.3055,3.3095,3.3132,3.3183,3.3212,3.3248,3.3288,3.3309,3.3356,3.3412,3.3416,3.3478,3.3518,3.3589,3.3616,3.3666,3.3651,3.3672,3.3677,3.3683,3.3689,3.3555,3.3676,3.3676,3.3675,3.3675,3.3675,0,3.3163,3.3187,3.3234,3.3287,3.3328,3.3318,3.336,3.3396,3.345,3.3487,3.3532,3.3599,3.3654,3.3684,3.374,3.3775,3.3774,3.379,3.3788,3.3794,3.3697,3.368,3.379,3.379,3.379,3.379,3.379,3.379,3.3224,3.3292,3.3304,3.3388,3.3412,3.3473,3.3498,3.3532,3.3563,3.3638,3.3684,3.3703,3.3739,3.3798,3.385,3.3857,3.3879,3.3897,3.3903,3.3812,3.3801,3.3789,3.3773,3.3901,3.3901,3.3997,3.3998,3.3998]},{"header":{"parameterUnit":"m.s-1","parameterCategory":1,"la1":30.2991,"la2":30.254,"lo1":-89.0895,"lo2":-89.0444,"dy":0.0017,"dx":0.0017,"nx":28,"ny":28,"refTime":"2024-08-06T21:00:00:Z","depth":0,"parameterNumber":3,"parameterNumberName":"V-component_of_WINDS"},"data":[0,0,0,0,0,0,0,0,0,0,0,0,0,0,0,0,0,0,0,0,0,0,0,0,0,0,0,0,0,0,0,0,0,0,0,0,0,0,0,0,0,0,0,0,0,0,0,0,0,0,0,0,0,0,0,0,0,0,-1.7002,-1.7001,0,-1.6905,-1.6904,-1.6903,-1.6932,-1.6934,-1.6936,-1.6938,-1.6833,-1.6828,-1.6824,0,0,0,0,0,0,0,0,0,0,0,0,0,-1.7207,-1.7203,-1.7002,-1.7001,-1.7,-1.6905,-1.6904,-1.6903,-1.6932,-1.6934,-1.6937,-1.6939,-1.6835,-1.6829,-1.6823,0,0,0,0,0,0,0,0,0,0,0,0,0,-1.7115,-1.7202,-1.7002,-1.7003,-1.7002,-1.6906,-1.6904,-1.6902,-1.6931,-1.6934,-1.6937,-1.694,-1.6836,-1.683,-1.6823,-1.6718,0,0,-1.6801,-1.6798,0,0,0,0,0,0,0,0,-1.712,-1.7107,-1.7004,-1.7003,-1.7002,-1.6934,-1.6938,-1.684,-1.693,-1.6958,-1.6938,-1.6942,-1.6864,-1.6855,-1.683,-1.6713,-1.6708,-1.68,-1.6796,-1.6793,-1.6791,0,0,0,0,0,0,0,-1.7126,-1.7111,-1.6964,-1.7003,-1.7001,-1.7006,-1.6997,-1.6919,-1.6895,-1.6956,-1.6958,-1.6946,-1.6864,-1.6836,-1.6827,-1.6707,-1.6801,-1.6794,-1.679,-1.6787,-1.65,-1.6497,0,0,0,0,0,0,-1.7134,-1.7117,-1.6967,-1.6961,-1.707,-1.7,-1.6989,-1.6952,-1.6896,-1.689,-1.6944,-1.6948,-1.6847,-1.6835,-1.6824,-1.6698,-1.6793,-1.6787,-1.6783,-1.6503,-1.6499,-1.6495,0,0,0,0,0,0,-1.7139,-1.7121,-1.6971,-1.7039,-1.702,-1.6993,-1.6952,-1.6949,-1.6922,-1.6887,-1.6882,-1.6921,-1.6849,-1.6834,-1.6744,-1.6695,-1.6783,-1.6777,-1.6507,-1.6502,-1.6497,-1.6446,0,0,0,0,0,0,-1.7144,-1.7122,-1.7083,-1.7038,-1.7017,-1.6894,-1.6949,-1.6945,-1.691,-1.6915,-1.6864,-1.6858,-1.685,-1.6755,-1.6737,-1.6687,-1.6771,-1.6511,-1.6505,-1.6499,-1.6452,-1.6439,-1.6429,0,0,0,0,0,-1.7152,-1.7071,-1.7081,-1.7063,-1.6968,-1.6891,-1.6879,-1.6873,-1.6906,-1.6866,-1.6843,-1.686,-1.6703,-1.6745,-1.6726,-1.6673,-1.6515,-1.6507,-1.6499,-1.6457,-1.6442,-1.6429,0,0,0,0,0,0,-1.7109,-1.7065,-1.7076,-1.6979,-1.6939,-1.6897,-1.6846,-1.6857,-1.6806,-1.6812,-1.6805,-1.6793,-1.6702,-1.6678,-1.6726,-1.6568,-1.6613,-1.6601,-1.6588,-1.6573,-1.6562,-1.657,-1.6766,0,0,0,0,0,-1.7088,-1.7032,-1.6996,-1.6913,-1.6893,-1.6873,-1.6839,-1.6839,-1.6796,-1.6779,-1.675,-1.6706,-1.6648,-1.6609,-1.6553,-1.6448,-1.6437,-1.6402,-1.639,-1.6381,-1.6371,-1.6315,-1.6299,-1.647,-1.647,-1.647,0,0,-1.7045,-1.7014,-1.6978,-1.6904,-1.6873,-1.6814,-1.6859,-1.6793,-1.6748,-1.6768,-1.6684,-1.666,-1.6611,-1.6514,-1.647,-1.6492,-1.6321,-1.6371,-1.6364,-1.6359,-1.6305,-1.6289,-1.6275,-1.6465,-1.6466,-1.6467,0,0,-1.6936,-1.6907,-1.6836,-1.6804,-1.6758,-1.6745,-1.6728,-1.6684,-1.667,-1.6585,-1.6599,-1.6544,-1.6443,-1.6408,-1.6377,-1.6255,-1.6268,-1.6236,-1.6177,-1.6122,-1.6109,-1.6097,-1.6054,-1.6039,-1.6226,-1.6226,-1.6226,0,-1.6887,-1.68,-1.6797,-1.6731,-1.6698,-1.6715,-1.6642,-1.6611,-1.6547,-1.6523,-1.6549,-1.6423,-1.6391,-1.6287,-1.6257,-1.6231,-1.6211,-1.6243,-1.6111,-1.6099,-1.6088,-1.6047,-1.6031,-1.6223,-1.6223,-1.6223,-1.6224,0,-1.6743,-1.6682,-1.663,-1.6571,-1.6531,-1.6462,-1.6447,-1.6407,-1.6409,-1.6394,-1.6306,-1.6269,-1.6206,-1.6181,-1.6181,-1.6076,-1.6091,-1.6114,-1.6159,-1.6068,-1.603,-1.6014,-1.6218,-1.6219,-1.622,-1.6221,0,0,-1.6605,-1.6546,-1.6527,-1.65,-1.645,-1.6402,-1.6333,-1.6274,-1.624,-1.6195,-1.6137,-1.6051,-1.6072,-1.6036,-1.6033,-1.5985,-1.5892,-1.6013,-1.6012,-1.5993,-1.5774,-1.5759,-1.5741,-1.59,-1.5897,-1.5894,-1.5779,0,-1.6492,-1.6374,-1.6369,-1.626,-1.6204,-1.6219,-1.6159,-1.6121,-1.6104,-1.6052,-1.6033,-1.5973,-1.6004,-1.5983,-1.5936,-1.5913,-1.5848,-1.5921,-1.5845,-1.5842,-1.5858,-1.572,-1.5703,-1.5596,-1.5764,-1.5761,-1.5759,0,-1.6346,-1.6299,-1.6185,-1.6144,-1.612,-1.6067,-1.6012,-1.5963,-1.5919,-1.591,-1.5871,-1.5875,-1.5803,-1.585,-1.5751,-1.5801,-1.5769,-1.5753,-1.5749,-1.5742,-1.5796,-1.5711,-1.5562,-1.5546,-1.5735,-1.5737,-1.5739,0,-1.6258,-1.6166,-1.6087,-1.6063,-1.6013,-1.5975,-1.5952,-1.5912,-1.5876,-1.5828,-1.5805,-1.5747,-1.5716,-1.5671,-1.5659,-1.5694,-1.556,-1.5606,-1.555,-1.555,-1.5522,-1.5524,-1.5367,-1.5499,-1.55,-1.55,-1.55,0,-1.6133,-1.6063,-1.6047,-1.5998,-1.592,-1.5914,-1.5836,-1.5815,-1.5779,-1.5726,-1.5734,-1.5683,-1.567,-1.5616,-1.5606,-1.5525,-1.5511,-1.5501,-1.5499,-1.5501,-1.5502,-1.5481,-1.5488,-1.5496,-1.5497,-1.5498,-1.5498,0,-1.6023,-1.6008,-1.5923,-1.5883,-1.5871,-1.5815,-1.578,-1.5732,-1.5717,-1.5649,-1.5632,-1.5607,-1.5544,-1.5528,-1.5451,-1.5444,-1.535,-1.5355,-1.5366,-1.5366,-1.5312,-1.5318,-1.5136,-1.5112,-1.526,-1.5258,-1.5257,0,-1.5945,-1.5892,-1.5847,-1.5813,-1.5789,-1.5733,-1.5697,-1.5689,-1.5652,-1.5599,-1.5557,-1.5496,-1.5447,-1.5345,-1.5319,-1.5261,-1.5265,-1.5205,-1.5256,-1.526,-1.5265,-1.5269,-1.5264,-1.5196,-1.5194,-1.5193,-1.5192,0,-1.5809,-1.5805,-1.5755,-1.5702,-1.566,-1.5618,-1.5577,-1.5548,-1.5534,-1.5491,-1.5428,-1.539,-1.5313,-1.5252,-1.5194,-1.5168,-1.5177,-1.5176,-1.516,-1.5162,-1.5171,-1.5167,-1.5341,-1.518,-1.5182,-1.5182,-1.5183,-1.5183,-1.5713,-1.5667,-1.5629,-1.5573,-1.5541,-1.5503,-1.5457,-1.5436,-1.5384,-1.5323,-1.5321,-1.5252,-1.521,-1.5133,-1.5104,-1.5049,-1.5067,-1.5044,-1.5038,-1.5033,-1.5029,-1.5179,-1.5038,-1.5039,-1.5039,-1.5039,-1.5039,0,-1.5579,-1.5555,-1.5504,-1.5448,-1.5403,-1.5417,-1.5373,-1.5334,-1.5275,-1.5235,-1.5187,-1.5115,-1.5056,-1.5025,-1.4966,-1.4928,-1.4931,-1.4913,-1.4916,-1.491,-1.5016,-1.5036,-1.4912,-1.4912,-1.4912,-1.4912,-1.4912,-1.4912,-1.5504,-1.5428,-1.5419,-1.5326,-1.5302,-1.5237,-1.5211,-1.5175,-1.5144,-1.5064,-1.5015,-1.4996,-1.496,-1.4899,-1.4845,-1.4837,-1.4816,-1.4796,-1.479,-1.489,-1.4903,-1.4915,-1.4934,-1.4791,-1.479,-1.4689,-1.4688,-1.4688]}]]